| time (UTC) | temp F | wind direction | speed MPH | gust MPH | rain 1hr in | rain 24hr in | rain mn in | humidity % | barometer mb |
| 20260507201514 | 65 | 85 | 0.0 | 3.0 | 0.00 | 0.00 | 0.00 | 73 | 1009.3 |
| 20260507200018 | 65 | 344 | 0.0 | 4.0 | 0.00 | 0.00 | 0.00 | 73 | 1009.4 |
| 20260507194514 | 65 | 165 | 0.0 | 7.0 | 0.00 | 0.00 | 0.00 | 73 | 1009.2 |
| 20260507193013 | 66 | 55 | 0.0 | 5.0 | 0.00 | 0.00 | 0.00 | 72 | 1009.1 |
| 20260507191513 | 66 | 112 | 0.0 | 4.0 | 0.00 | 0.00 | 0.00 | 72 | 1009.0 |
| 20260507190011 | 66 | 310 | 0.0 | 5.0 | 0.00 | 0.00 | 0.00 | 72 | 1009.0 |
| 20260507184511 | 66 | 261 | 2.0 | 9.0 | 0.00 | 0.00 | 0.00 | 71 | 1008.8 |
| 20260507183010 | 66 | 321 | 3.0 | 15.0 | 0.00 | 0.00 | 0.00 | 71 | 1008.3 |
| 20260507181510 | 66 | 281 | 4.0 | 13.0 | 0.00 | 0.00 | 0.00 | 71 | 1008.3 |
| 20260507180009 | 66 | 134 | 2.0 | 13.0 | 0.00 | 0.00 | 0.00 | 71 | 1008.7 |
| 20260507174508 | 66 | 340 | 2.0 | 15.0 | 0.00 | 0.00 | 0.00 | 71 | 1009.0 |
| 20260507173012 | 66 | 233 | 4.0 | 12.0 | 0.00 | 0.00 | 0.00 | 71 | 1008.8 |
| 20260507171514 | 66 | 308 | 2.0 | 16.0 | 0.00 | 0.00 | 0.00 | 70 | 1009.0 |
| 20260507170007 | 67 | 271 | 2.0 | 13.0 | 0.00 | 0.00 | 0.00 | 69 | 1009.0 |
| 20260507164507 | 67 | 257 | 3.0 | 19.0 | 0.00 | 0.00 | 0.00 | 69 | 1008.3 |
| 20260507163006 | 67 | 303 | 5.0 | 17.0 | 0.00 | 0.00 | 0.00 | 69 | 1008.2 |
| 20260507161505 | 67 | 269 | 4.0 | 21.0 | 0.00 | 0.00 | 0.00 | 67 | 1008.3 |
| 20260507160012 | 68 | 270 | 2.0 | 15.0 | 0.00 | 0.00 | 0.00 | 65 | 1008.3 |
| 20260507154506 | 68 | 296 | 6.0 | 16.0 | 0.00 | 0.00 | 0.00 | 65 | 1008.2 |
| 20260507153006 | 68 | 28 | 3.0 | 20.0 | 0.00 | 0.00 | 0.00 | 64 | 1008.4 |
| 20260507151504 | 69 | 171 | 5.0 | 20.0 | 0.00 | 0.00 | 0.00 | 62 | 1008.4 |
| 20260507150003 | 69 | 340 | 5.0 | 15.0 | 0.00 | 0.00 | 0.00 | 61 | 1008.7 |
| 20260507144509 | 69 | 173 | 7.0 | 19.0 | 0.00 | 0.00 | 0.00 | 60 | 1008.5 |
| 20260507143003 | 70 | 288 | 7.0 | 19.0 | 0.00 | 0.00 | 0.00 | 58 | 1008.4 |
| 20260507141600 | 70 | 355 | 5.0 | 17.0 | 0.00 | 0.00 | 0.00 | 57 | 1008.4 |
| 20260507140104 | 71 | 260 | 7.0 | 19.0 | 0.00 | 0.00 | 0.00 | 55 | 1008.6 |
| 20260507134559 | 71 | 158 | 3.0 | 17.0 | 0.00 | 0.00 | 0.00 | 54 | 1009.1 |
| 20260507133057 | 72 | 272 | 5.0 | 18.0 | 0.00 | 0.00 | 0.00 | 53 | 1009.3 |
| 20260507131602 | 73 | 219 | 5.0 | 18.0 | 0.00 | 0.00 | 0.00 | 50 | 1009.3 |
| 20260507130108 | 73 | 261 | 5.0 | 19.0 | 0.00 | 0.00 | 0.00 | 49 | 1009.3 |
| 20260507124555 | 74 | 184 | 7.0 | 19.0 | 0.00 | 0.00 | 0.00 | 46 | 1009.4 |
| 20260507123052 | 73 | 276 | 6.0 | 16.0 | 0.00 | 0.00 | 0.00 | 45 | 1009.8 |
| 20260507121602 | 75 | 222 | 7.0 | 18.0 | 0.00 | 0.00 | 0.00 | 41 | 1009.8 |
| 20260507120050 | 74 | 290 | 6.0 | 19.0 | 0.00 | 0.00 | 0.00 | 40 | 1009.7 |
| 20260507114604 | 76 | 238 | 10.0 | 26.0 | 0.00 | 0.00 | 0.00 | 35 | 1009.8 |
| 20260507113051 | 76 | 344 | 7.0 | 16.0 | 0.00 | 0.00 | 0.00 | 36 | 1009.6 |
| 20260507111549 | 76 | 187 | 4.0 | 14.0 | 0.00 | 0.00 | 0.00 | 36 | 1009.9 |
| 20260507110049 | 76 | 236 | 4.0 | 13.0 | 0.00 | 0.00 | 0.00 | 35 | 1010.0 |
| 20260507104546 | 76 | 256 | 3.0 | 15.0 | 0.00 | 0.00 | 0.00 | 35 | 1009.8 |
| 20260507103045 | 75 | 261 | 4.0 | 15.0 | 0.00 | 0.00 | 0.00 | 35 | 1009.9 |
| 20260507101543 | 76 | 242 | 2.0 | 14.0 | 0.00 | 0.00 | 0.00 | 35 | 1010.3 |
| 20260507100041 | 75 | 306 | 3.0 | 15.0 | 0.00 | 0.00 | 0.00 | 35 | 1010.5 |
| 20260507094540 | 75 | 209 | 4.0 | 18.0 | 0.00 | 0.00 | 0.00 | 36 | 1010.5 |
| 20260507093037 | 75 | 319 | 4.0 | 16.0 | 0.00 | 0.00 | 0.00 | 35 | 1010.6 |
| 20260507091533 | 73 | 341 | 3.0 | 14.0 | 0.00 | 0.00 | 0.00 | 40 | 1010.6 |
| 20260507090036 | 74 | 130 | 4.0 | 12.0 | 0.00 | 0.00 | 0.00 | 41 | 1010.6 |
| 20260507084529 | 72 | 230 | 2.0 | 11.0 | 0.00 | 0.00 | 0.00 | 43 | 1010.7 |
| 20260507083028 | 72 | 280 | 2.0 | 11.0 | 0.00 | 0.00 | 0.00 | 44 | 1010.8 |
| 20260507081539 | 71 | 187 | 1.0 | 9.0 | 0.00 | 0.00 | 0.00 | 46 | 1010.9 |
| 20260507080022 | 71 | 183 | 4.0 | 10.0 | 0.00 | 0.00 | 0.00 | 43 | 1011.1 |
| 20260507074532 | 69 | 325 | 1.0 | 10.0 | 0.00 | 0.00 | 0.00 | 47 | 1011.3 |
| 20260507073014 | 68 | 282 | 1.0 | 9.0 | 0.00 | 0.00 | 0.00 | 51 | 1011.5 |
| 20260507071509 | 66 | 290 | 1.0 | 8.0 | 0.00 | 0.00 | 0.00 | 59 | 1011.7 |
| 20260507070010 | 64 | 226 | 0.0 | 5.0 | 0.00 | 0.00 | 0.00 | 64 | 1011.7 |
| 20260507064506 | 64 | 286 | 0.0 | 0.0 | 0.00 | 0.00 | 0.00 | 67 | 1011.9 |
| 20260507063003 | 63 | 284 | 0.0 | 0.0 | 0.00 | 0.00 | 0.00 | 69 | 1012.2 |
| 20260507061503 | 63 | 284 | 0.0 | 0.0 | 0.00 | 0.00 | 0.00 | 70 | 1012.2 |
| 20260507060001 | 63 | 224 | 0.0 | 6.0 | 0.00 | 0.00 | 0.00 | 71 | 1012.2 |
| 20260507054501 | 62 | 255 | 1.0 | 8.0 | 0.00 | 0.00 | 0.00 | 73 | 1012.2 |
| 20260507053001 | 61 | 265 | 3.0 | 12.0 | 0.00 | 0.00 | 0.00 | 79 | 1012.1 |
| 20260507051558 | 61 | 198 | 1.0 | 5.0 | 0.00 | 0.00 | 0.00 | 80 | 1012.2 |
| 20260507050056 | 61 | 279 | 0.0 | 3.0 | 0.00 | 0.00 | 0.00 | 82 | 1012.2 |
| 20260507044559 | 61 | 262 | 0.0 | 7.0 | 0.00 | 0.00 | 0.00 | 82 | 1012.2 |
| 20260507043050 | 61 | 255 | 0.0 | 7.0 | 0.00 | 0.00 | 0.00 | 81 | 1012.5 |
| 20260507041559 | 63 | 158 | 0.0 | 8.0 | 0.00 | 0.00 | 0.00 | 77 | 1012.3 |
| 20260507040048 | 63 | 259 | 1.0 | 7.0 | 0.00 | 0.00 | 0.00 | 68 | 1012.5 |
| 20260507034556 | 62 | 223 | 0.0 | 5.0 | 0.00 | 0.00 | 0.00 | 63 | 1012.3 |
| 20260507033052 | 62 | 49 | 0.0 | 0.0 | 0.00 | 0.00 | 0.00 | 67 | 1012.2 |
| 20260507031602 | 63 | 49 | 0.0 | 0.0 | 0.00 | 0.00 | 0.00 | 65 | 1012.3 |
| 20260507030053 | 63 | 48 | 0.0 | 3.0 | 0.00 | 0.00 | 0.00 | 63 | 1012.4 |
| 20260507024547 | 63 | 140 | 0.0 | 8.0 | 0.00 | 0.00 | 0.00 | 65 | 1012.3 |
| 20260507023047 | 63 | 134 | 3.0 | 6.0 | 0.00 | 0.00 | 0.00 | 68 | 1012.0 |
| 20260507021543 | 63 | 262 | 1.0 | 8.0 | 0.00 | 0.00 | 0.00 | 69 | 1012.4 |
| 20260507020047 | 61 | 148 | 0.0 | 13.0 | 0.00 | 0.00 | 0.00 | 77 | 1012.5 |
| 20260507014549 | 62 | 251 | 0.0 | 6.0 | 0.00 | 0.00 | 0.00 | 82 | 1012.3 |
| 20260507013044 | 61 | 240 | 1.0 | 8.0 | 0.00 | 0.00 | 0.00 | 82 | 1012.5 |
| 20260507011542 | 62 | 65 | 1.0 | 7.0 | 0.00 | 0.00 | 0.00 | 83 | 1012.8 |
| 20260507010042 | 62 | 111 | 0.0 | 7.0 | 0.00 | 0.00 | 0.00 | 82 | 1012.8 |
| 20260507004537 | 62 | 286 | 1.0 | 9.0 | 0.00 | 0.00 | 0.00 | 81 | 1012.7 |
| 20260507003038 | 62 | 219 | 3.0 | 7.0 | 0.00 | 0.00 | 0.00 | 81 | 1012.7 |
| 20260507001537 | 62 | 252 | 1.0 | 10.0 | 0.00 | 0.00 | 0.00 | 80 | 1013.1 |
| 20260507000039 | 62 | 5 | 0.0 | 6.0 | 0.00 | 0.00 | 0.00 | 79 | 1013.0 |
| 20260506234534 | 62 | 335 | 3.0 | 14.0 | 0.00 | 0.00 | 0.00 | 79 | 1012.9 |
| 20260506233035 | 62 | 231 | 3.0 | 11.0 | 0.00 | 0.00 | 0.00 | 79 | 1012.8 |
| 20260506231529 | 63 | 215 | 0.0 | 5.0 | 0.00 | 0.00 | 0.00 | 76 | 1012.8 |
| 20260506230027 | 63 | 308 | 1.0 | 9.0 | 0.00 | 0.00 | 0.00 | 71 | 1012.8 |
| 20260506224524 | 64 | 298 | 2.0 | 11.0 | 0.00 | 0.00 | 0.00 | 66 | 1012.7 |
| 20260506223022 | 64 | 314 | 3.0 | 12.0 | 0.00 | 0.00 | 0.00 | 61 | 1012.3 |
| 20260506221521 | 64 | 195 | 2.0 | 10.0 | 0.00 | 0.00 | 0.00 | 61 | 1012.6 |
| 20260506220022 | 64 | 292 | 3.0 | 11.0 | 0.00 | 0.00 | 0.00 | 60 | 1012.5 |
| 20260506214517 | 64 | 297 | 1.0 | 7.0 | 0.00 | 0.00 | 0.00 | 62 | 1012.4 |
| 20260506213016 | 63 | 288 | 1.0 | 8.0 | 0.00 | 0.00 | 0.00 | 63 | 1012.2 |
| 20260506211517 | 61 | 329 | 0.0 | 4.0 | 0.00 | 0.00 | 0.00 | 72 | 1011.9 |
| 20260506210012 | 61 | 33 | 0.0 | 4.0 | 0.00 | 0.00 | 0.00 | 82 | 1012.1 |
| 20260506204512 | 61 | 318 | 0.0 | 11.0 | 0.00 | 0.00 | 0.00 | 84 | 1012.5 |
| 20260506203011 | 61 | 273 | 2.0 | 13.0 | 0.00 | 0.00 | 0.00 | 85 | 1013.0 |